Date String (YYYY-MM-DD hh:mm:ss) UTC,Instrument flags,Ambient pressure (hPa),Sample flow (lpm),Bypass flow (lpm),Sample temperature (°C),Ambient temperature (°C),ASC tube jacket temperature (°C),LED temperature (°C),Box temperature (°C),Sample RH (%),Span deviation,Mass concentration (μg/m³),Mass concentration (μg/m³),Mass concentration (μg/m³)
DateTimeUTC,F1_M11,P_M11,Q1_M11,Q2_M11,T1_M11,T2_M11,T3_M11,T4_M11,T5_M11,U1_M11,ZSPAN_M11,X0_M11,X2_M11,X1_M11
2021-11-04 15:00:00,,0829.5,5.01,0.00,24.6,23.7,00.0,33.5,26.4,15.2,0000.0,0005.25,0003.16,0002.87
2021-11-04 15:01:00,,0829.3,4.99,0.00,24.6,23.7,00.0,33.6,26.5,15.3,0000.0,0005.34,0003.20,0002.91
2021-11-04 15:02:00,,0829.3,5.00,0.00,24.6,23.7,00.0,33.6,26.5,15.3,0000.0,0005.31,0003.19,0002.92
2021-11-04 15:03:00,,0829.3,5.01,0.00,24.6,23.8,00.0,33.6,26.5,15.4,0000.0,0005.30,0003.19,0002.94
2021-11-04 15:04:00,,0829.3,4.99,0.00,24.6,23.8,00.0,33.6,26.5,15.6,0000.0,0005.07,0003.18,0002.94
2021-11-04 15:05:00,,0829.3,5.00,0.00,24.6,23.8,00.0,33.6,26.5,16.1,0000.0,0004.53,0003.17,0002.95
2021-11-04 15:06:00,,0829.3,4.99,0.00,24.6,23.8,00.0,33.6,26.5,16.0,0000.0,0003.87,0003.16,0002.95
2021-11-04 15:07:00,,0829.3,5.01,0.00,24.7,23.8,00.0,33.6,26.5,16.5,0000.0,0003.86,0003.16,0002.93
2021-11-04 15:08:00,,0829.3,5.00,0.00,24.7,23.8,00.0,33.6,26.5,16.1,0000.0,0003.85,0003.15,0002.93
2021-11-04 15:09:00,,0829.4,5.01,0.00,24.7,23.8,00.0,33.6,26.6,16.0,0000.0,0003.89,0003.17,0002.96
2021-11-04 15:10:00,,0829.3,5.00,0.00,24.7,23.9,00.0,33.6,26.6,16.1,0000.0,0003.91,0003.18,0002.98
2021-11-04 15:11:00,,0829.3,5.00,0.00,24.7,23.9,00.0,33.6,26.6,16.0,0000.0,0003.88,0003.20,0003.02
2021-11-04 15:12:00,,0829.2,5.00,0.00,24.7,23.9,00.0,33.7,26.6,16.1,0000.0,0004.00,0003.25,0003.07
2021-11-04 15:13:00,,0829.2,4.99,0.00,24.7,23.9,00.0,33.7,26.6,16.3,0000.0,0004.20,0003.32,0003.13
2021-11-04 15:14:00,,0829.3,4.99,0.00,24.7,23.9,00.0,33.7,26.6,16.2,0000.0,0004.35,0003.37,0003.17
2021-11-04 15:15:00,,0829.2,5.00,0.00,24.7,23.9,00.0,33.7,26.6,16.2,0000.0,0004.45,0003.41,0003.21
2021-11-04 15:16:00,,0829.2,5.00,0.00,24.7,23.9,00.0,33.7,26.6,16.3,0000.0,0004.55,0003.46,0003.25
2021-11-04 15:17:00,,0829.3,5.00,0.00,24.7,23.9,00.0,33.7,26.6,16.6,0000.0,0004.70,0003.53,0003.31
2021-11-04 15:18:00,,0829.3,4.99,0.00,24.7,23.9,00.0,33.7,26.6,16.8,0000.0,0004.82,0003.59,0003.39
2021-11-04 15:19:00,,0829.3,5.01,0.00,24.7,23.9,00.0,33.7,26.6,17.0,0000.0,0005.08,0003.69,0003.48
2021-11-04 15:20:00,,0829.2,4.99,0.00,24.8,23.9,00.0,33.7,26.6,17.5,0000.0,0005.44,0003.82,0003.59
2021-11-04 15:21:00,,0829.2,5.01,0.00,24.8,24.0,00.0,33.7,26.6,17.7,0001.2,0005.79,0003.96,0003.72
2021-11-04 15:22:00,,0829.3,5.00,0.00,24.8,24.0,00.0,33.7,26.7,17.2,0001.3,0006.30,0004.12,0003.85
2021-11-04 15:23:00,,0829.2,5.01,0.00,24.8,24.0,00.0,33.7,26.7,17.4,0001.3,0006.68,0004.26,0003.97
2021-11-04 15:24:00,,0829.2,4.99,0.00,24.8,24.0,00.0,33.7,26.7,17.5,0001.2,0006.99,0004.37,0004.08
2021-11-04 15:25:00,,0829.2,4.99,0.00,24.8,24.1,00.0,33.8,26.7,17.7,0000.6,0007.32,0004.44,0004.15
2021-11-04 15:26:00,,0829.2,5.01,0.00,24.9,24.1,00.0,33.8,26.7,17.3,0000.7,0007.63,0004.54,0004.25
2021-11-04 15:27:00,,0829.2,5.00,0.00,24.9,24.1,00.0,33.8,26.8,17.3,0000.4,0007.76,0004.65,0004.36
2021-11-04 15:28:00,,0829.3,5.00,0.00,24.9,24.1,00.0,33.8,26.8,17.3,0000.3,0007.94,0004.75,0004.46
2021-11-04 15:29:00,,0829.3,4.99,0.00,24.9,24.2,00.0,33.8,26.8,17.3,0000.7,0008.08,0004.85,0004.55
2021-11-04 15:30:00,,0829.3,5.01,0.00,24.9,24.2,00.0,33.8,26.8,17.2,0001.1,0008.22,0004.94,0004.63
2021-11-04 15:31:00,,0829.3,4.99,0.00,25.0,24.2,00.0,33.8,26.9,17.1,0000.9,0008.28,0004.95,0004.64
2021-11-04 15:32:00,,0829.3,5.00,0.00,25.0,24.2,00.0,33.9,26.9,17.2,0000.4,0008.24,0004.89,0004.60
2021-11-04 15:33:00,,0829.3,4.99,0.00,25.0,24.2,00.0,33.9,26.9,17.1,0000.6,0008.19,0004.85,0004.58
2021-11-04 15:34:00,,0829.3,4.99,0.00,25.0,24.3,00.0,33.9,26.9,17.0,0001.1,0008.59,0004.80,0004.56
2021-11-04 15:35:00,,0829.3,5.01,0.00,25.0,24.3,00.0,33.9,27.0,17.1,0001.4,0008.70,0004.77,0004.53
2021-11-04 15:36:00,,0829.2,5.00,0.00,25.1,24.3,00.0,33.9,27.0,17.2,0001.7,0008.68,0004.77,0004.55
2021-11-04 15:37:00,,0829.2,4.99,0.00,25.1,24.3,00.0,33.9,27.0,17.4,0001.7,0008.56,0004.80,0004.57
2021-11-04 15:38:00,,0829.3,5.00,0.00,25.1,24.3,00.0,34.0,27.0,17.5,0002.3,0008.64,0004.83,0004.59
2021-11-04 15:39:00,,0829.3,5.00,0.00,25.1,24.4,00.0,34.0,27.0,17.5,0002.3,0008.68,0004.87,0004.61
2021-11-04 15:40:00,,0829.2,4.99,0.00,25.1,24.4,00.0,34.0,27.0,17.7,0001.9,0008.82,0004.91,0004.64
2021-11-04 15:41:00,,0829.2,5.00,0.00,25.2,24.4,00.0,34.0,27.1,17.9,0001.5,0008.86,0004.94,0004.67
2021-11-04 15:42:00,,0829.2,4.99,0.00,25.2,24.4,00.0,34.0,27.1,17.8,0001.4,0008.86,0004.97,0004.71
2021-11-04 15:43:00,,0829.2,5.01,0.00,25.2,24.4,00.0,34.1,27.1,17.8,0002.0,0008.93,0005.06,0004.80
2021-11-04 15:44:00,,0829.2,4.99,0.00,25.2,24.5,00.0,34.1,27.1,17.6,0002.2,0009.12,0005.15,0004.88
2021-11-04 15:45:00,,0829.2,5.01,0.00,25.2,24.5,00.0,34.1,27.2,17.7,0001.9,0009.06,0005.22,0004.93
2021-11-04 15:46:00,,0829.2,5.00,0.00,25.3,24.5,00.0,34.1,27.2,17.5,0002.0,0009.00,0005.29,0004.99
2021-11-04 15:47:00,,0829.2,4.99,0.00,25.3,24.5,00.0,34.1,27.2,17.7,0002.1,0008.99,0005.36,0005.05
2021-11-04 15:48:00,,0829.2,5.01,0.00,25.3,24.6,00.0,34.1,27.2,17.9,0002.4,0009.13,0005.40,0005.08
2021-11-04 15:49:00,,0829.2,5.00,0.00,25.3,24.6,00.0,34.2,27.3,17.9,0002.7,0009.16,0005.44,0005.12
2021-11-04 15:50:00,,0829.3,5.00,0.00,25.3,24.6,00.0,34.2,27.3,17.6,0002.5,0009.16,0005.46,0005.15
2021-11-04 15:51:00,,0829.2,4.99,0.00,25.3,24.6,00.0,34.2,27.3,17.4,0002.8,0009.11,0005.46,0005.14
2021-11-04 15:52:00,,0829.3,5.01,0.00,25.4,24.6,00.0,34.2,27.3,17.3,0002.7,0009.13,0005.46,0005.14
2021-11-04 15:53:00,,0829.3,5.00,0.00,25.4,24.7,00.0,34.3,27.3,17.1,0002.7,0009.14,0005.45,0005.13
2021-11-04 15:54:00,,0829.3,5.01,0.00,25.4,24.7,00.0,34.3,27.3,17.5,0002.7,0009.20,0005.44,0005.09
2021-11-04 15:55:00,,0829.3,4.99,0.00,25.4,24.7,00.0,34.3,27.4,18.1,0002.9,0009.17,0005.34,0004.97
2021-11-04 15:56:00,,0829.3,4.99,0.00,25.4,24.7,00.0,34.3,27.4,17.9,0003.0,0008.93,0005.21,0004.85
2021-11-04 15:57:00,,0829.2,5.01,0.00,25.5,24.7,00.0,34.3,27.4,18.4,0002.8,0008.73,0005.09,0004.74
2021-11-04 15:58:00,,0829.3,4.99,0.00,25.5,24.8,00.0,34.3,27.4,18.2,0002.9,0008.47,0004.92,0004.60
2021-11-04 15:59:00,,0829.2,5.01,0.00,25.5,24.8,00.0,34.4,27.5,18.0,0002.7,0008.18,0004.79,0004.47
